Back to catalog

STARLINK-38077

AliveCommunicationsSSO
NORAD 69983·PAYLOAD·🇺🇸 United States

Launched Jul 11, 2026 from Vandenberg Space Force Base

Loading…

Next Passes (next 24 hours)

TLE

FreshSource: CelesTrak SupGP

Epoch: Sep 14, 2026, 21:03 UTC

1 69983C 26159J   26257.87756944 -.02581800  00000+0 -27284-1 0  2576
2 69983  97.2848  99.7392 0001408  94.9150 243.4344 15.65521529    11

Track STARLINK-38077 in real time with AllMySat

Download on the App Store